TimeEDT,TemperatureF,Dew PointF,Humidity,Sea Level PressureIn,VisibilityMPH,Wind Direction,Wind SpeedMPH,Gust SpeedMPH,PrecipitationIn,Events,Conditions,WindDirDegrees,DateUTC
12:00 AM,66.9,63.0,87,29.91,-9999.0,Calm,Calm,-,N/A,,Clear,0,2013-06-18 04:00:00
1:00 AM,66.9,63.0,87,29.90,-9999.0,Calm,Calm,-,N/A,,Clear,0,2013-06-18 05:00:00
2:00 AM,68.0,62.1,81,29.89,-9999.0,Calm,Calm,-,N/A,,Clear,0,2013-06-18 06:00:00
3:00 AM,66.9,61.0,81,29.88,-9999.0,Calm,Calm,-,N/A,,Clear,0,2013-06-18 07:00:00
4:00 AM,66.0,61.0,84,29.87,-9999.0,Calm,Calm,-,N/A,,Clear,0,2013-06-18 08:00:00
5:00 AM,64.9,61.0,87,29.88,-9999.0,Calm,Calm,-,N/A,,Clear,0,2013-06-18 09:00:00
6:00 AM,64.9,61.0,87,29.88,-9999.0,Calm,Calm,-,N/A,,Clear,0,2013-06-18 10:00:00
7:00 AM,72.0,64.0,76,29.88,-9999.0,ENE,3.5,-,N/A,,Clear,60,2013-06-18 11:00:00
8:00 AM,80.1,64.9,60,29.89,-9999.0,South,4.6,-,N/A,,Clear,170,2013-06-18 12:00:00
9:00 AM,82.9,66.0,56,29.90,-9999.0,Calm,Calm,-,N/A,,Clear,0,2013-06-18 13:00:00
10:00 AM,82.9,66.9,58,29.88,-9999.0,Calm,Calm,-,N/A,,Scattered Clouds,0,2013-06-18 14:00:00
11:00 AM,84.9,66.9,55,29.88,-9999.0,ESE,4.6,-,N/A,,Partly Cloudy,120,2013-06-18 15:00:00
12:00 PM,89.1,69.1,52,29.86,-9999.0,Calm,Calm,-,N/A,,Mostly Cloudy,0,2013-06-18 16:00:00
12:58 PM,84.2,69.8,62,29.85,-9999.0,Variable,3.5,-,N/A,,Overcast,0,2013-06-18 16:58:00
1:00 PM,87.1,69.1,55,29.86,-9999.0,Variable,6.9,-,N/A,,Overcast,0,2013-06-18 17:00:00
1:08 PM,78.8,59.0,51,29.87,-9999.0,NNW,17.3,24.2,N/A,Thunderstorm,Thunderstorm,330,2013-06-18 17:08:00
1:20 PM,71.6,60.8,69,29.85,-9999.0,NNE,8.1,20.7,N/A,Rain-Thunderstorm,Light Thunderstorms and Rain,20,2013-06-18 17:20:00
1:38 PM,71.6,62.6,73,29.84,-9999.0,NNE,5.8,-,N/A,Rain,Light Rain,30,2013-06-18 17:38:00
1:52 PM,69.8,62.6,78,29.83,-9999.0,NE,8.1,-,N/A,Rain-Thunderstorm,Light Thunderstorms and Rain,40,2013-06-18 17:52:00
2:00 PM,71.1,62.1,73,29.82,-9999.0,NE,6.9,-,N/A,Rain-Thunderstorm,Thunderstorms and Rain,40,2013-06-18 18:00:00
3:00 PM,75.0,64.0,69,29.87,-9999.0,SW,5.8,-,N/A,Rain-Thunderstorm,Heavy Thunderstorms and Rain,230,2013-06-18 19:00:00
4:00 PM,69.1,64.9,87,29.85,-9999.0,NE,3.5,-,N/A,Rain-Thunderstorm,Thunderstorms and Rain,50,2013-06-18 20:00:00
4:44 PM,75.2,66.2,73,29.85,-9999.0,SE,5.8,-,N/A,Rain,Rain,140,2013-06-18 20:44:00
5:00 PM,75.9,66.0,71,29.86,-9999.0,SE,3.5,-,N/A,Rain,Rain,140,2013-06-18 21:00:00
6:00 PM,77.0,66.2,69,29.82,-9999.0,SE,4.6,-,N/A,Rain,Light Rain,130,2013-06-18 22:00:00
6:06 PM,77.0,64.9,66,29.81,-9999.0,ESE,5.8,-,N/A,Rain,Light Rain,110,2013-06-18 22:06:00
7:00 PM,69.1,66.0,90,29.83,-9999.0,Calm,Calm,-,N/A,Rain,Light Rain,0,2013-06-18 23:00:00
7:27 PM,69.8,64.4,83,29.86,-9999.0,Variable,5.8,-,N/A,Rain,Light Rain,0,2013-06-18 23:27:00
8:00 PM,71.1,64.9,81,29.85,-9999.0,NE,5.8,-,N/A,Rain,Light Rain,50,2013-06-19 00:00:00
9:00 PM,73.9,62.1,66,29.79,-9999.0,East,9.2,-,N/A,,Partly Cloudy,90,2013-06-19 01:00:00
10:00 PM,68.0,62.1,81,29.84,-9999.0,Variable,4.6,-,N/A,,Partly Cloudy,0,2013-06-19 02:00:00
11:00 PM,66.0,62.1,87,29.85,-9999.0,Variable,3.5,-,N/A,,Mostly Cloudy,0,2013-06-19 03:00:00